GEFSSGP_500_meanwind_234.txt.gz
Wind_Speed
21 21 21 20 20 13 11 10 9 9 8 8 7 7 8 8 9 9 8 8 8 8 8 8 8 7 7 8 8 9 9 10 11 11 11 11 11 12 13 12 11 12 12 11 11 12 12 12 11
20 20 22 22 16 13 12 11 10 10 9 9 9 9 8 9 9 10 9 10 9 9 9 9 8 8 7 7 8 8 9 10 10 11 11 11 12 13 13 12 12 12 12 12 12 12 12 11 11
21 21 22 18 13 12 12 12 11 11 10 10 10 10 10 10 11 11 10 10 10 9 9 9 8 8 8 7 7 8 9 9 10 10 10 11 11 12 12 12 13 12 12 12 11 12 11 11 11
21 23 21 15 12 12 13 13 12 11 11 11 10 10 10 11 11 11 10 10 10 10 10 10 9 8 8 8 7 7 9 9 10 10 10 11 11 12 13 13 12 12 12 12 12 12 11 11 11
23 21 16 13 12 12 13 13 13 12 11 12 11 11 11 10 10 10 10 10 10 10 10 10 10 8 8 8 8 8 8 10 10 10 10 11 12 13 13 14 13 12 12 12 12 12 11 11 11
21 16 13 12 12 13 13 13 13 12 12 13 12 11 11 11 11 10 10 10 10 10 10 10 10 10 9 8 9 9 9 10 11 11 11 12 13 12 12 12 12 12 12 12 12 13 12 11 10
17 14 13 11 12 14 13 13 13 14 14 13 13 12 12 11 11 11 10 10 10 10 10 10 10 9 9 9 10 10 10 11 11 11 11 11 11 11 11 12 11 11 11 11 11 12 11 10 9
14 13 12 11 12 13 13 14 14 14 13 13 13 13 12 12 12 11 10 10 10 10 10 10 10 9 9 9 10 10 10 10 10 10 10 10 10 10 10 11 11 11 11 11 10 10 10 9 8
10 11 9 9 11 12 13 14 14 14 14 15 14 14 13 12 12 12 11 11 11 10 10 10 9 9 10 9 9 9 9 9 9 10 10 10 10 10 10 10 10 10 10 10 9 9 8 8 7
8 9 8 8 10 11 13 13 14 14 15 15 15 14 13 12 12 12 12 12 11 11 11 10 10 9 10 9 9 9 8 9 9 10 10 10 10 10 10 9 9 9 8 8 8 7 7 6 6
6 7 7 9 10 11 13 13 13 14 14 15 15 14 13 12 12 12 12 12 11 11 11 10 10 9 9 9 9 9 8 8 8 9 9 9 9 8 8 8 8 7 7 7 6 6 6 5 5
5 7 7 8 10 11 12 12 12 13 14 15 15 14 13 12 11 12 12 12 11 11 10 11 10 10 9 9 9 9 8 8 8 8 8 7 8 7 7 7 6 6 5 5 5 4 4 4 4
5 6 7 9 10 11 12 12 12 13 14 14 15 14 13 13 12 12 12 11 11 11 10 10 10 9 9 9 9 8 8 7 7 6 6 7 7 6 7 7 5 5 5 4 3 3 3 3 3
4 5 7 9 10 10 11 12 12 13 13 14 15 15 15 13 12 12 12 11 11 10 10 10 9 9 9 8 8 8 7 7 6 5 5 5 5 5 6 6 5 5 4 3 3 2 2 2 1
3 4 6 8 10 10 11 11 12 13 14 14 14 15 14 13 13 12 11 11 10 10 10 9 8 8 8 8 8 7 7 6 5 5 4 4 5 5 5 5 5 5 4 3 3 2 2 2 1
2 3 4 6 7 9 10 10 11 12 14 14 14 14 14 13 13 12 11 10 10 9 9 8 8 7 7 7 6 6 6 5 5 4 4 4 4 4 4 4 4 4 4 4 3 3 3 3 3
3 1 1 4 5 6 8 8 11 12 13 13 14 14 14 14 13 12 12 11 10 9 9 8 7 7 6 6 5 5 5 5 4 4 3 3 3 3 3 3 3 4 4 4 4 4 4 4 5
4 3 1 2 3 5 6 7 9 12 12 13 14 14 13 14 13 13 12 11 10 10 9 8 7 6 6 5 5 5 5 5 4 4 3 3 3 3 3 3 3 4 5 5 5 5 5 6 6
4 3 2 2 2 3 4 5 8 10 11 12 13 13 13 13 13 12 12 12 11 10 10 9 7 7 6 6 5 5 5 5 4 4 4 3 3 3 4 4 4 5 6 6 6 6 6 7 7
7 7 6 5 4 4 4 3 4 8 10 12 12 12 12 12 12 12 12 11 11 10 10 10 8 8 7 7 5 5 5 5 5 5 4 3 3 4 4 5 6 6 7 8 8 8 8 8 8
10 10 9 7 5 5 5 7 4 5 8 10 10 11 12 12 11 11 11 11 11 11 10 9 9 8 8 8 7 7 6 5 5 5 4 4 4 4 5 5 6 7 8 8 9 10 9 9 9
12 11 10 7 5 7 6 7 8 7 8 9 10 10 11 11 11 11 10 10 11 11 10 9 9 8 8 7 7 7 7 7 6 6 6 5 4 5 6 6 7 7 8 9 9 10 10 9 9
13 13 12 9 8 8 7 6 9 8 8 8 9 9 9 10 10 10 10 10 11 10 10 9 9 8 8 8 7 7 7 7 7 6 6 6 6 6 6 6 7 8 8 9 9 10 10 10 10
15 14 11 10 9 9 8 6 8 8 7 7 8 9 8 9 10 10 10 10 10 10 10 9 9 9 8 8 8 8 8 8 8 7 7 6 6 7 7 8 8 9 9 9 9 10 10 10 10
16 15 11 11 11 10 7 7 9 8 8 8 8 8 8 8 8 9 9 9 9 10 10 9 9 9 8 8 8 8 8 9 9 8 8 7 7 7 8 9 9 10 9 9 10 10 10 10 10
18 16 13 12 10 8 8 8 8 9 10 8 7 7 7 7 8 8 9 9 9 9 10 10 9 9 8 8 9 9 9 9 9 9 8 8 8 9 9 9 10 9 9 10 10 11 11 11 10
18 17 15 14 11 10 9 9 10 10 10 9 7 6 7 8 8 8 9 9 9 9 9 10 10 9 9 8 9 9 9 9 9 9 9 9 9 10 10 10 10 10 10 10 10 11 10 10 11
20 17 17 16 14 13 11 11 13 12 11 10 9 8 7 7 8 8 8 8 8 9 10 10 10 9 9 9 9 9 10 10 10 10 10 10 10 10 10 10 10 10 10 11 11 11 11 11 11
23 21 20 18 16 13 11 13 14 13 13 11 11 10 8 7 8 8 8 9 9 9 10 10 10 9 10 10 10 10 9 9 10 11 11 11 11 11 11 11 11 11 11 11 11 11 12 12 12
23 22 20 19 18 16 13 13 13 13 12 11 11 10 8 8 8 8 8 9 9 9 10 10 10 10 10 10 10 10 9 10 10 11 11 12 12 12 12 12 12 12 12 12 12 13 12 12 13

GEFSSGP_500_meanwind_240.txt.gz
Wind_Speed
18 18 17 17 18 17 18 19 17 15 14 14 15 15 13 11 11 11 10 10 11 11 11 10 10 10 10 10 9 9 9 9 9 9 9 10 11 11 11 10 10 11 11 11 12 13 12 12 12
18 18 18 18 18 18 20 20 18 16 15 15 15 14 13 12 12 12 12 12 12 12 11 11 10 10 10 10 10 10 10 10 10 9 9 10 10 10 10 10 10 11 11 12 12 11 11 11 11
18 19 18 19 20 20 21 21 19 17 16 15 15 14 13 13 13 13 13 12 12 12 11 11 10 10 10 10 10 10 10 10 10 10 9 10 10 10 10 10 11 11 12 12 12 12 11 11 11
18 19 19 20 21 21 21 21 20 18 16 15 15 14 13 13 13 13 12 12 12 12 12 11 11 11 10 10 10 10 10 9 9 9 9 9 10 10 10 10 11 11 11 11 12 12 12 11 10
19 20 20 20 21 21 21 21 20 18 17 16 15 14 14 14 14 13 13 13 13 12 12 12 11 11 11 10 11 10 10 9 9 9 10 10 9 10 10 10 10 10 10 11 11 11 11 11 10
16 18 19 20 20 21 21 21 19 18 17 16 15 14 14 14 14 14 14 13 14 13 13 13 12 12 12 11 11 11 11 10 11 10 10 10 10 11 10 10 10 10 10 11 11 11 11 11 10
16 17 18 19 19 20 21 20 19 18 17 16 15 15 14 14 15 14 14 13 13 13 14 13 13 13 13 12 11 11 12 12 12 11 11 11 11 11 11 10 10 10 11 11 11 10 10 9 9
16 15 16 18 18 20 20 19 18 18 18 17 16 15 15 15 15 15 14 14 13 13 13 13 14 13 14 13 12 12 11 12 12 12 12 11 11 11 10 10 10 10 11 11 11 10 9 9 8
13 13 15 17 18 19 19 18 18 19 18 18 16 15 15 15 15 15 14 14 13 13 13 13 13 13 13 13 13 12 11 12 12 12 12 12 11 10 10 9 9 9 9 9 9 9 8 7 7
11 11 13 15 17 18 18 17 18 18 18 18 17 16 16 16 15 15 14 14 13 13 13 13 13 13 12 12 12 12 11 11 11 11 11 11 10 10 9 8 8 8 7 8 7 7 6 6 6
10 10 12 13 15 16 16 17 17 18 17 17 17 16 16 16 15 15 14 14 14 13 13 13 13 13 13 13 12 11 11 11 10 10 9 9 9 8 8 8 7 7 6 6 6 5 5 4 4
8 9 11 13 14 15 16 17 17 17 17 18 17 16 15 15 14 14 14 13 14 14 14 14 14 13 13 12 11 11 11 10 9 8 8 8 8 7 6 6 6 6 5 5 4 4 3 3 3
6 9 10 12 13 15 15 15 16 16 17 18 17 16 15 15 14 13 13 13 13 13 13 13 13 13 13 12 12 11 10 10 10 8 8 7 7 7 7 6 6 6 5 4 3 2 2 2 2
6 7 9 11 12 13 14 15 15 16 18 17 17 16 16 15 14 14 13 13 13 13 12 11 12 12 12 11 11 10 10 9 8 8 8 7 7 6 6 6 6 6 5 4 3 2 1 1 1
6 6 8 10 11 12 13 14 15 15 16 16 16 16 15 15 15 14 13 13 13 12 12 11 11 11 11 10 9 8 8 8 8 7 7 7 7 6 5 5 5 5 4 3 3 2 1 0 1
5 5 7 9 9 9 11 12 14 14 15 16 16 15 15 15 14 14 13 13 12 12 11 11 10 10 10 9 8 8 7 7 7 7 7 7 7 6 5 4 3 3 3 3 2 2 2 2 2
5 5 6 7 8 8 10 11 12 14 14 15 16 16 15 15 14 13 12 13 13 12 11 11 10 10 9 9 8 7 7 6 6 6 6 6 5 4 4 3 3 2 2 2 3 3 3 3 3
5 5 4 4 6 7 9 10 11 12 13 14 15 15 15 14 14 13 12 12 12 12 11 10 10 10 10 9 8 7 7 6 5 5 4 5 4 4 3 3 2 2 2 3 3 3 3 4 4
6 6 4 3 3 5 7 8 9 10 11 12 13 13 13 13 13 13 12 12 11 11 11 11 10 11 10 9 9 7 6 6 5 4 4 3 3 4 3 3 2 2 3 3 4 4 4 5 5
7 6 4 3 0 3 5 6 7 10 10 11 11 11 12 12 11 11 11 11 11 10 10 10 10 10 10 10 9 8 7 6 5 5 4 3 3 3 3 3 3 3 4 4 5 5 5 6 6
8 6 5 4 2 1 3 4 6 8 8 9 9 10 11 11 10 10 11 11 10 10 10 10 9 9 9 9 9 9 8 7 6 5 5 3 3 4 3 3 4 4 5 5 5 6 6 6 6
10 9 8 7 6 5 4 4 4 5 7 8 8 9 11 10 10 10 10 10 10 9 9 9 9 9 8 8 8 8 8 7 7 6 5 4 4 3 3 4 4 4 5 5 6 6 6 6 7
12 12 11 10 9 7 6 5 3 3 5 6 7 9 10 10 9 9 10 10 9 9 9 8 8 8 8 7 7 7 7 7 6 6 5 5 4 4 4 4 5 5 5 6 7 7 7 7 7
15 14 13 12 12 11 7 6 3 3 4 5 6 8 9 9 9 9 9 9 9 8 8 7 7 7 7 7 6 6 6 6 6 6 5 5 5 5 5 5 5 5 6 6 7 7 7 7 7
18 17 15 15 13 10 8 7 5 2 3 4 5 7 8 7 7 8 8 8 8 8 7 7 6 7 7 6 6 5 6 6 5 6 6 6 6 6 6 6 6 7 7 7 7 8 8 8 8
20 19 17 15 13 11 11 9 6 3 2 3 4 5 5 5 5 6 7 8 9 8 7 7 7 7 7 7 6 6 5 5 6 6 6 6 6 7 7 8 7 7 8 8 8 8 9 8 8
21 20 19 16 14 14 13 10 8 6 3 3 3 4 3 4 4 5 6 7 7 8 7 7 7 7 7 8 7 6 6 6 6 6 7 8 8 8 8 8 9 8 8 8 8 9 9 9 9
22 21 20 19 16 16 15 11 10 8 5 4 4 4 4 5 5 5 5 5 6 6 7 8 8 8 8 8 7 7 7 6 6 7 7 8 8 9 9 9 9 9 9 9 9 9 9 9 9
24 25 24 21 20 17 15 11 9 8 6 5 5 4 4 4 5 4 5 5 5 5 6 7 7 7 8 8 8 7 7 7 7 8 8 9 9 10 10 10 10 10 10 10 9 9 9 10 10
24 25 25 23 20 18 16 14 11 9 8 7 6 5 4 4 4 4 4 4 5 5 6 6 7 8 8 8 7 8 8 7 8 9 9 10 10 10 11 11 11 11 10 10 10 10 10 10 11

GEFSSGP_500_meanwind_246.txt.gz
Wind_Speed
20 20 19 18 19 18 19 19 18 17 16 16 16 15 14 14 13 12 11 10 8 8 8 9 11 12 12 12 11 10 10 11 11 11 10 10 10 10 9 9 8 9 9 8 9 10 10 10 9
19 20 19 19 19 19 19 19 19 18 17 17 17 16 15 14 13 12 11 10 9 9 9 10 11 12 12 12 11 11 11 11 11 10 10 10 10 10 10 10 9 9 9 9 10 10 10 10 9
19 19 19 19 19 19 20 19 19 18 17 16 16 16 15 14 13 12 11 11 10 10 10 11 12 12 12 12 11 11 11 11 11 11 10 10 9 10 9 9 9 9 9 9 10 10 10 9 9
18 19 19 19 19 20 20 20 19 18 17 17 16 16 15 14 13 13 12 11 11 11 11 12 12 12 12 13 12 12 11 11 12 11 10 9 9 9 9 9 10 10 9 10 9 9 9 9 9
18 18 19 18 19 20 20 20 19 19 17 16 16 15 14 13 13 13 13 12 12 12 12 12 12 12 12 12 12 12 12 11 11 11 10 9 9 9 8 9 9 9 9 9 10 9 9 9 8
18 18 19 19 19 20 20 20 19 18 17 16 16 16 15 14 14 14 13 13 12 12 12 12 12 12 12 12 12 12 12 12 11 11 10 10 9 9 8 9 9 10 10 10 9 8 8 7 7
19 20 20 20 19 19 20 20 19 18 17 15 15 15 15 14 13 14 14 13 13 13 13 13 12 13 12 13 13 13 13 12 12 11 10 10 10 10 9 9 9 10 10 9 9 7 7 6 5
18 19 20 20 20 20 20 20 19 18 16 15 15 15 15 14 13 14 14 13 14 13 13 13 13 13 13 13 14 14 13 12 11 11 10 10 10 10 10 10 10 10 9 8 7 6 6 5 4
16 17 19 20 20 20 20 20 19 18 16 15 14 15 15 14 13 14 14 14 14 14 13 13 12 13 13 13 13 13 13 12 11 11 11 11 11 10 10 10 9 9 8 7 6 6 5 4 4
14 16 17 18 19 19 19 19 19 18 16 15 14 14 14 14 14 14 14 14 14 14 13 13 13 12 12 12 12 12 12 12 12 11 11 11 11 10 10 9 9 8 7 7 6 5 4 4 3
13 14 15 16 18 18 18 18 18 18 17 15 15 14 13 13 13 13 14 14 14 13 13 13 13 12 12 12 12 12 11 11 11 12 11 10 10 9 9 8 7 7 6 5 5 4 3 3 2
11 13 14 15 16 17 17 17 18 18 17 16 15 14 13 13 13 13 12 13 13 13 12 12 12 12 11 11 11 11 11 10 10 10 10 10 8 8 8 7 7 6 5 5 4 3 2 1 1
8 10 13 13 14 16 16 16 16 17 17 16 15 13 13 12 12 12 12 12 12 13 13 12 12 12 10 10 11 11 10 9 9 8 8 7 7 6 6 6 5 4 4 4 3 2 1 1 1
6 8 11 12 13 14 15 15 15 16 15 15 14 13 13 12 12 12 12 12 12 13 12 12 12 12 11 10 10 10 9 8 7 7 6 6 6 5 5 5 4 4 3 2 2 2 1 1 2
4 6 8 10 12 13 14 15 15 15 15 14 14 13 12 13 13 12 12 12 12 12 12 11 11 11 10 10 9 8 8 7 7 7 6 5 5 4 4 4 3 3 3 2 2 2 3 2 3
3 4 6 8 10 11 12 13 13 14 14 14 13 13 13 13 13 13 12 12 11 11 11 11 10 9 9 9 8 7 7 6 6 6 6 6 5 5 4 3 2 2 2 2 2 2 2 3 3
3 3 3 5 7 9 10 11 11 12 12 12 13 12 12 12 12 12 11 11 11 11 10 10 10 9 8 8 8 7 6 6 6 5 5 5 4 4 4 3 2 2 2 2 3 3 3 4 4
4 2 2 3 4 6 7 8 9 10 10 10 11 11 12 11 11 11 10 10 10 10 10 9 8 8 8 8 7 7 6 5 5 4 4 4 4 4 4 3 3 3 3 2 3 4 4 4 5
5 3 1 1 2 3 4 5 7 8 8 9 9 10 10 11 11 11 10 10 9 9 9 8 8 7 7 8 7 7 6 5 5 4 3 3 3 3 4 4 3 4 4 3 4 5 5 5 5
8 6 4 2 1 1 2 4 5 6 6 7 8 8 9 9 10 10 10 9 9 9 8 8 8 7 7 7 7 7 6 6 5 5 4 3 3 4 4 4 4 4 5 5 5 6 6 6 7
10 8 7 5 3 2 1 2 3 4 5 6 7 8 8 8 9 10 10 9 9 9 8 8 8 7 7 6 6 6 6 6 6 5 5 4 4 4 4 5 5 5 6 6 6 7 8 8 8
11 10 10 8 6 4 2 1 2 3 4 4 5 7 8 8 9 9 9 9 9 8 8 8 8 7 7 6 6 6 6 6 6 6 6 5 5 5 5 6 6 6 6 7 7 8 8 9 9
14 13 12 10 8 6 4 2 1 2 3 3 4 6 7 8 8 9 9 9 8 8 7 7 7 6 6 6 6 6 5 6 6 6 6 6 6 6 6 6 7 7 7 7 8 8 9 10 10
17 15 14 12 10 9 6 5 2 0 2 2 2 4 5 6 7 7 7 8 8 8 7 6 6 6 6 6 6 5 5 5 6 6 6 6 6 6 6 7 8 8 8 9 9 9 10 11 11
20 18 16 14 12 10 8 7 3 2 1 1 2 2 3 4 5 6 6 6 7 7 7 6 5 5 6 6 6 5 5 5 6 6 6 6 6 7 7 8 8 8 9 10 10 10 11 11 11
21 20 18 16 14 12 10 9 5 4 3 2 1 2 2 2 3 4 4 5 5 6 6 6 5 5 5 5 5 5 5 5 5 6 6 7 7 7 8 8 9 9 9 10 10 10 11 12 12
22 20 19 18 16 14 13 10 8 6 5 5 4 4 2 2 2 2 3 4 4 5 5 6 5 5 6 6 6 6 5 5 5 6 6 7 7 8 9 9 9 10 10 10 10 11 11 12 12
24 22 21 20 18 17 14 12 9 8 8 7 6 6 4 3 2 2 3 4 4 5 5 5 4 5 6 6 7 7 6 6 6 6 6 7 8 8 9 9 10 10 10 10 11 11 11 12 12
27 25 24 22 21 20 17 14 11 10 9 8 7 7 6 4 3 2 3 4 5 5 5 5 5 5 6 7 7 8 7 7 7 7 7 8 9 9 10 10 10 10 10 11 11 11 12 12 12
30 28 26 25 22 21 19 16 13 11 11 9 8 7 6 5 4 3 3 4 5 6 6 5 5 5 6 7 7 7 7 7 7 7 8 9 10 10 11 11 11 11 11 12 12 13 13 13 13

GEFSSGP_500_meanwind_252.txt.gz
Wind_Speed
18 18 17 16 18 15 13 14 14 14 14 14 14 14 14 13 11 10 9 9 9 9 10 10 10 10 11 11 11 11 11 12 12 12 11 11 11 11 11 12 11 11 10 10 9 10 10 9 9
18 18 18 18 17 14 13 14 14 14 14 15 14 14 14 13 12 11 10 10 10 10 11 11 11 11 11 11 11 12 13 13 12 12 12 11 11 11 11 11 12 12 11 10 10 10 10 10 9
17 18 18 18 15 14 13 14 14 14 14 14 15 14 13 13 12 11 11 11 11 11 11 11 10 11 11 11 11 13 13 13 12 12 12 11 11 11 11 11 11 11 11 10 11 10 10 10 9
18 18 19 17 15 15 14 14 14 14 14 14 15 15 14 13 12 12 11 12 11 11 11 11 10 11 12 12 11 12 12 12 12 12 11 11 10 10 10 10 10 10 10 10 10 10 10 9 9
17 18 18 15 15 16 15 15 14 15 14 14 15 14 14 13 13 12 12 12 12 11 11 11 11 11 12 12 12 12 12 12 12 12 11 11 11 10 10 10 10 10 10 9 9 9 9 9 8
18 18 15 15 15 16 16 16 16 15 15 14 14 15 14 14 13 12 12 12 11 11 11 12 12 12 12 13 12 12 12 12 12 12 12 11 10 10 10 11 10 10 9 9 8 8 8 8 7
17 16 15 15 15 16 16 17 17 16 15 15 14 15 15 14 14 13 12 11 11 11 12 12 12 12 13 13 13 13 12 12 13 12 11 10 10 10 10 11 11 10 9 9 9 8 7 7 6
16 16 15 15 16 15 16 17 17 17 16 15 15 15 14 14 13 13 12 11 11 11 12 13 13 13 13 12 12 12 12 12 12 12 10 9 9 10 10 11 10 10 8 8 8 7 6 6 6
15 15 14 15 15 15 16 17 17 17 16 15 14 15 14 13 12 12 12 12 11 11 12 12 13 13 12 12 12 12 12 11 11 11 11 10 10 11 11 10 10 9 8 7 6 6 5 5 5
13 12 13 14 14 15 15 16 17 16 16 15 15 14 14 13 13 12 12 11 11 10 11 12 12 12 12 12 11 11 11 11 11 11 11 11 12 11 11 10 9 8 7 6 5 5 4 3 3
11 11 12 13 13 14 15 16 16 16 15 14 14 14 13 13 13 12 11 11 11 10 10 11 11 11 12 12 11 11 11 11 11 10 10 11 11 11 10 9 8 7 7 6 5 4 3 2 3
9 10 11 12 12 13 14 15 16 16 16 14 14 13 13 12 12 12 11 11 10 10 10 10 10 10 11 11 11 11 10 10 10 10 10 10 10 9 8 7 7 6 5 4 4 3 2 1 2
8 9 10 11 11 12 13 14 15 15 15 15 14 13 12 12 11 11 11 10 10 10 9 9 9 9 10 10 10 10 9 9 9 9 9 9 8 7 6 5 5 5 4 3 2 1 0 0 1
7 7 8 9 10 11 12 13 13 14 14 14 14 13 12 11 11 10 10 10 10 10 9 9 9 9 9 9 9 8 8 8 8 8 7 6 6 6 5 4 4 3 2 2 2 1 1 1 1
6 6 6 7 8 9 11 12 13 13 13 13 12 12 11 11 10 10 10 10 10 10 9 9 9 9 8 8 8 8 7 7 7 7 6 6 5 4 4 3 2 2 2 2 1 1 1 1 2
4 5 4 5 6 8 10 10 11 11 11 12 11 11 10 10 10 10 9 9 10 10 9 8 8 8 8 7 7 7 7 7 6 6 6 5 4 4 3 3 3 2 2 1 1 1 1 2 2
3 3 2 3 4 6 8 8 9 10 10 10 10 9 9 9 9 9 9 9 9 9 9 8 8 8 8 7 7 6 6 6 6 5 5 5 4 4 3 3 3 2 2 2 1 2 2 2 2
4 2 1 1 3 5 6 7 7 8 9 9 9 8 8 8 8 8 8 8 8 8 8 8 7 7 8 7 7 6 6 5 5 5 5 4 4 4 3 3 3 3 2 2 2 2 2 2 3
6 4 2 1 1 3 4 5 6 6 7 8 8 7 7 7 7 8 8 8 8 8 8 7 7 7 7 7 7 7 6 6 6 6 5 5 5 4 4 4 4 3 2 2 2 3 3 4 4
8 5 4 3 1 0 2 3 4 5 6 6 7 6 6 6 6 7 7 7 7 7 7 7 6 6 6 6 6 6 7 6 6 7 6 5 5 5 5 5 5 4 3 3 4 4 5 5 6
11 9 7 4 3 1 1 2 3 3 4 5 6 5 6 6 6 6 7 7 7 7 6 6 5 5 5 5 5 5 5 5 6 6 6 5 5 5 5 5 5 5 4 4 5 5 6 7 8
12 11 9 6 4 2 1 1 1 2 3 4 5 5 5 5 5 6 6 6 6 6 6 6 5 5 5 5 5 4 4 4 5 5 5 5 5 5 6 6 6 6 6 5 6 6 7 7 8
15 13 11 8 6 4 3 1 1 0 2 3 4 4 5 5 4 5 5 5 5 6 6 5 5 4 4 5 4 4 4 4 4 4 4 4 5 4 5 6 6 6 6 7 7 7 7 8 9
17 14 13 10 8 7 6 4 2 1 0 2 2 3 3 4 4 4 4 4 5 5 5 5 5 4 4 4 4 4 3 3 4 4 4 4 4 4 5 6 6 6 6 7 7 7 8 8 9
19 16 13 11 11 10 8 6 4 3 2 1 1 2 2 3 3 4 4 4 4 4 3 3 4 4 4 4 4 4 3 3 4 4 4 4 5 5 6 6 7 6 7 7 7 7 8 9 9
21 18 16 13 12 11 10 7 4 4 3 2 2 1 2 2 3 3 3 3 4 4 4 3 3 3 3 3 3 3 3 3 4 4 4 4 5 6 6 7 7 7 7 7 7 8 9 9 10
23 21 18 16 14 12 11 9 6 5 4 4 3 3 3 3 3 3 3 3 3 3 3 3 2 3 3 3 2 2 3 3 4 4 5 5 5 6 7 7 7 7 7 8 8 9 10 11 11
24 22 22 19 17 14 12 10 8 7 6 5 4 4 4 4 4 4 3 2 2 3 3 2 2 2 3 3 2 2 3 3 4 5 5 5 6 7 7 7 7 8 8 9 10 10 11 12 13
27 25 24 21 19 16 13 12 11 9 8 7 6 5 4 5 5 4 3 3 3 3 3 2 2 2 3 3 2 3 4 4 4 5 5 6 7 7 8 9 9 9 9 10 11 11 12 13 14
28 26 24 22 21 19 16 14 13 11 9 9 7 6 6 5 6 5 4 3 3 3 3 3 3 3 3 3 3 4 5 5 5 6 6 7 8 8 9 10 10 10 10 11 12 13 13 14 15

GEFSSGP_500_meanwind_258.txt.gz
Wind_Speed
16 16 15 15 16 14 10 9 8 8 7 7 7 7 7 7 5 4 3 4 5 4 5 6 5 6 6 5 5 5 6 7 8 8 8 9 8 8 8 9 10 9 8 8 8 7 8 8 7
16 15 16 18 16 11 9 9 9 8 8 8 8 8 8 7 6 5 4 5 5 4 5 5 5 6 6 6 6 6 7 7 8 9 8 9 8 8 8 9 10 9 7 6 6 7 8 8 8
16 16 19 17 12 10 10 9 9 8 8 8 8 9 9 8 7 7 5 6 6 5 5 6 6 6 7 7 7 7 7 7 8 8 9 8 9 8 9 10 10 8 7 7 7 7 8 9 8
16 20 19 14 10 11 10 9 9 9 9 9 10 10 10 9 9 8 8 8 8 8 8 8 8 9 9 8 8 8 7 7 8 8 8 7 7 8 10 10 9 8 8 8 7 8 9 9 8
18 19 17 13 11 11 11 10 10 9 9 10 11 11 10 10 10 10 9 9 10 10 10 10 9 9 10 9 9 9 8 8 8 8 8 8 8 9 9 9 9 8 9 8 8 8 9 8 7
20 17 13 12 11 12 12 10 9 10 10 10 11 10 10 10 10 10 10 10 11 11 11 10 10 9 10 10 9 8 9 8 7 7 7 7 8 8 8 7 8 7 7 8 7 7 7 6 6
18 14 11 10 10 12 12 11 9 10 10 11 11 11 11 11 11 11 11 11 11 11 11 11 10 10 10 10 9 9 8 8 7 6 6 7 8 8 8 7 7 6 6 7 7 7 6 6 5
15 12 11 11 11 12 12 12 11 10 11 11 11 11 11 11 11 11 11 11 11 11 11 11 10 10 9 9 9 9 9 8 8 7 7 7 7 7 7 7 6 5 5 5 5 5 5 4 3
12 10 10 10 11 11 12 12 12 11 12 12 11 11 11 11 11 10 10 10 10 10 10 10 9 9 9 9 9 9 9 8 8 8 7 7 7 7 7 7 6 5 5 4 3 3 3 3 3
10 9 8 9 10 10 12 12 11 12 13 12 12 11 11 11 11 11 10 9 9 10 10 10 9 9 9 9 8 8 8 8 8 7 7 7 7 7 7 6 5 4 4 4 3 2 2 2 2
7 7 8 9 9 10 11 11 11 11 12 12 12 12 12 11 11 12 11 10 9 9 9 9 9 9 9 8 8 8 8 8 7 7 8 7 7 7 7 6 5 5 4 4 3 3 2 1 1
6 7 8 8 10 10 11 11 12 12 12 12 12 12 12 12 12 12 11 10 9 9 9 8 9 9 9 8 8 8 7 7 8 7 7 8 8 7 6 5 4 4 3 3 4 3 3 2 1
5 7 8 9 10 10 11 11 11 12 12 12 12 12 12 13 13 12 11 10 10 9 9 8 8 8 8 8 8 8 7 7 7 7 7 7 6 6 4 3 3 3 3 3 3 2 2 2 2
5 6 7 9 9 10 11 11 11 12 12 12 12 12 12 12 12 12 11 11 10 9 8 8 8 7 7 7 7 7 7 7 7 7 6 6 5 4 4 4 4 4 4 3 3 3 3 3 3
2 3 6 8 9 10 10 11 12 13 12 12 12 12 12 11 12 12 11 11 10 9 8 7 7 7 7 6 7 7 7 6 6 6 6 6 5 5 4 4 4 4 4 4 3 3 3 3 3
1 1 5 7 8 9 10 10 10 11 12 12 12 12 11 11 11 11 11 11 10 9 8 7 7 7 7 6 6 6 7 6 6 5 5 5 5 4 4 4 4 4 4 4 4 4 4 4 3
2 1 4 5 5 6 7 8 9 11 11 11 12 12 11 10 10 10 10 11 10 10 9 8 7 7 6 6 5 5 6 6 5 5 5 4 4 4 4 4 4 4 4 4 4 4 5 4 4
3 0 2 3 5 4 5 7 8 10 10 10 11 11 11 10 9 9 10 10 10 10 9 8 7 7 7 6 5 5 5 5 6 6 5 5 5 5 5 5 5 5 5 5 5 5 5 5 5
4 2 1 4 6 3 3 6 8 8 10 10 9 10 10 10 9 8 9 9 9 9 8 8 8 7 7 6 5 5 6 6 6 6 6 6 6 6 6 5 5 6 5 5 5 5 5 6 6
7 5 5 6 6 5 3 3 6 7 8 9 8 8 9 9 8 7 7 8 8 9 9 8 8 7 6 6 6 6 6 5 5 6 6 6 7 7 6 6 6 7 7 7 6 6 6 7 7
10 9 8 6 6 6 5 4 4 6 8 8 8 7 8 8 8 7 8 8 8 8 8 8 8 8 7 6 6 6 6 6 6 6 6 6 7 7 7 6 6 7 7 7 7 7 7 7 8
12 11 10 7 5 7 5 7 5 5 7 7 8 7 7 7 7 7 7 7 8 7 7 8 8 8 7 7 7 6 6 6 6 6 6 6 6 6 6 6 7 7 7 8 8 7 7 8 9
13 12 10 8 7 7 7 9 7 4 6 7 7 6 6 6 6 6 6 7 7 7 7 7 7 7 7 7 7 7 6 6 6 6 6 6 5 6 6 6 7 7 8 8 9 8 8 8 9
15 13 10 9 9 10 9 9 8 5 5 7 7 6 6 5 5 6 6 6 7 7 7 7 7 7 6 6 7 7 6 6 6 6 6 6 6 6 6 7 7 7 8 8 9 10 10 10 11
17 15 12 12 13 12 8 10 11 8 5 6 7 6 5 5 4 5 6 6 6 6 7 7 6 6 6 6 6 7 7 6 6 6 6 6 6 6 7 7 8 8 9 9 9 10 11 11 12
18 16 15 13 11 10 9 11 11 10 9 7 7 7 4 4 5 4 5 6 6 6 6 6 6 6 6 6 6 7 7 6 6 6 6 6 7 7 8 8 8 9 9 10 10 11 12 12 13
19 18 15 14 13 12 11 11 11 11 11 9 8 9 5 4 5 5 5 5 6 6 6 6 5 5 5 5 6 6 6 6 6 6 7 7 7 8 8 9 9 9 9 10 11 11 12 13 14
22 19 18 17 15 15 13 12 12 11 13 10 9 9 8 6 5 6 6 6 6 6 6 5 5 5 5 5 5 6 6 6 6 7 8 8 8 9 9 9 10 10 10 11 12 12 13 14 15
24 23 22 20 18 17 15 14 13 13 13 12 11 9 8 6 6 6 6 5 5 6 6 5 4 4 4 5 5 6 6 7 7 8 8 9 9 10 10 10 10 11 12 12 13 13 14 15 15
24 24 24 23 21 20 17 16 13 12 13 12 10 10 9 7 7 7 7 6 5 6 5 5 5 4 5 5 5 6 6 7 8 9 9 10 11 11 11 10 11 12 12 13 13 14 15 15 16

GEFSSGP_500_meanwind_264.txt.gz
Wind_Speed
16 17 16 16 16 15 17 17 16 15 14 14 13 12 10 9 8 7 6 6 7 7 7 7 6 6 6 6 6 7 7 7 6 7 7 8 9 9 10 10 10 9 9 9 9 8 8 8 8
17 17 17 18 17 16 17 18 17 16 14 14 14 13 12 10 9 8 7 7 7 7 7 7 7 7 7 7 7 7 7 7 7 7 7 8 8 9 9 10 10 9 9 8 8 8 8 8 8
17 18 18 18 18 17 17 17 17 17 15 14 14 14 13 12 11 10 9 8 8 8 8 8 7 7 7 8 8 8 7 7 7 7 7 8 8 9 9 10 9 9 8 8 8 7 8 8 8
16 16 18 19 19 19 18 17 17 17 16 14 15 14 13 13 13 12 11 10 10 10 9 8 8 9 9 9 9 8 7 7 7 8 8 8 9 9 9 9 9 9 8 8 7 7 7 8 8
16 17 18 19 20 20 19 18 17 17 16 15 15 14 13 13 14 13 13 12 12 11 11 9 10 10 10 10 9 8 8 8 8 8 8 9 9 9 9 9 8 7 7 7 7 7 7 8 8
17 19 20 20 21 20 19 19 18 17 16 16 15 15 14 14 14 13 13 14 13 12 11 11 10 10 10 9 8 7 8 7 8 8 8 8 9 9 9 8 8 7 6 6 7 6 7 7 7
16 20 20 20 20 18 18 18 17 17 16 16 15 15 15 15 14 14 13 13 13 12 12 12 12 11 11 10 8 7 7 7 7 8 8 9 8 8 8 9 8 7 6 6 6 7 7 7 6
16 18 19 18 18 18 18 18 17 17 16 16 16 15 15 15 14 14 13 13 12 12 12 13 12 12 11 10 8 7 7 8 8 8 8 9 8 8 8 8 7 7 6 6 5 5 5 5 4
16 17 17 17 17 17 18 18 18 17 16 16 16 15 15 14 14 13 14 13 12 12 12 12 12 12 11 11 10 10 9 9 9 9 9 9 8 8 8 7 6 5 5 5 4 4 4 3 3
15 16 15 16 16 17 18 18 19 18 16 16 16 15 14 14 14 14 14 13 12 12 12 12 12 11 12 11 11 11 11 11 10 10 10 9 8 8 7 6 6 5 4 4 4 3 3 3 2
13 14 14 15 16 17 17 18 18 18 17 16 16 16 14 14 14 14 13 13 12 12 12 12 12 11 11 11 11 12 11 11 11 11 10 9 9 8 7 6 6 5 5 4 4 3 3 2 2
12 12 13 15 16 16 17 17 18 17 17 17 16 16 15 15 15 14 14 13 12 12 12 12 12 11 11 11 11 11 11 10 10 10 9 8 8 8 7 6 5 5 5 4 3 2 2 2 1
10 11 12 14 14 16 17 17 17 17 17 17 16 15 16 16 15 14 13 14 13 12 12 12 12 11 11 10 10 11 11 10 10 9 8 8 7 7 6 6 5 5 4 4 3 2 1 1 0
9 9 12 13 14 15 16 16 16 17 16 16 15 15 15 15 15 14 13 13 13 13 12 11 11 11 10 10 10 10 9 9 8 8 7 7 6 6 6 5 5 5 4 4 4 3 2 1 1
7 8 10 12 13 14 14 14 15 16 15 15 15 14 15 14 14 14 13 13 13 12 11 11 10 10 10 9 9 9 9 8 8 7 6 6 6 6 6 5 5 5 5 4 3 3 3 2 1
5 7 8 10 11 12 12 13 13 14 14 14 14 14 14 14 14 13 13 13 12 12 11 11 9 10 10 9 8 8 8 7 7 7 6 6 6 6 6 5 5 4 4 3 2 2 2 2 2
5 6 6 7 9 9 10 11 12 13 13 13 13 13 13 13 13 13 12 12 12 12 12 11 10 10 10 9 8 7 7 6 6 6 6 6 6 6 6 6 5 5 4 4 3 3 3 3 3
5 4 4 5 6 7 8 9 10 10 12 13 13 13 12 12 12 12 12 11 11 11 11 11 11 11 10 9 8 7 7 7 7 7 6 7 6 6 6 5 6 5 5 5 5 4 4 4 4
5 2 2 3 4 5 6 7 8 8 9 10 11 12 12 11 11 11 11 11 11 10 10 9 10 10 10 10 9 8 8 7 7 7 7 6 6 6 6 6 6 6 6 6 5 5 5 5 5
5 3 1 1 2 4 6 6 6 7 8 9 10 11 11 11 10 10 10 10 10 10 9 9 9 9 9 10 9 8 8 8 8 7 7 6 6 6 6 6 6 6 7 7 6 6 5 5 5
6 4 2 3 2 3 4 5 6 6 6 7 8 9 10 10 9 9 8 9 9 9 8 8 8 8 8 9 9 9 8 8 8 8 7 7 7 7 7 6 6 6 7 7 6 6 5 5 5
7 6 5 5 6 6 6 7 5 6 5 6 7 7 8 8 8 8 7 7 8 8 7 7 7 7 7 7 8 8 8 8 8 8 7 7 7 7 7 6 6 6 6 6 6 6 6 6 6
9 9 9 8 8 8 7 8 5 5 5 5 5 5 6 6 7 7 7 7 7 7 7 7 7 6 7 7 7 7 7 8 8 7 7 7 7 6 6 6 6 6 6 6 6 7 7 7 7
14 14 13 12 11 11 8 8 5 4 5 4 5 4 4 5 5 5 6 6 6 6 7 7 6 6 6 7 7 7 7 7 7 6 6 6 7 6 6 6 7 7 6 6 7 8 8 8 8
17 17 16 14 14 12 10 9 5 3 4 4 5 4 3 3 3 3 4 5 5 5 6 6 5 5 6 6 6 6 6 6 6 6 6 6 6 6 6 7 7 7 7 7 7 8 9 9 9
19 18 16 15 13 12 11 9 5 4 5 5 4 4 3 3 2 2 2 4 4 4 5 5 5 5 5 5 5 4 5 5 5 5 5 5 6 6 6 7 7 7 7 7 8 8 8 8 9
21 19 17 15 14 13 12 11 7 5 6 5 4 4 4 3 3 1 1 2 3 3 4 4 4 4 4 4 3 3 4 4 5 5 5 5 6 6 6 7 7 7 8 8 8 8 8 9 9
22 21 20 19 18 15 14 11 8 8 8 7 6 5 3 3 3 2 1 1 2 2 3 3 3 3 4 3 3 3 3 4 4 5 5 5 5 6 6 7 7 8 9 9 9 8 9 9 10
24 23 22 21 20 18 16 13 11 9 10 8 5 4 4 3 4 4 4 2 2 2 3 3 3 3 3 3 3 2 3 3 5 5 5 5 6 6 7 7 8 9 9 9 9 9 10 10 11
26 25 24 24 22 21 19 17 14 11 10 9 8 6 6 5 5 6 5 5 4 4 3 3 3 3 3 3 3 3 3 3 4 5 5 6 6 7 7 7 8 9 9 10 10 10 11 11 12